| time (UTC) | temp F | wind direction | speed knots | gust knots | rain 1hr in | rain 24hr in | rain mn in | humidity % | barometer mb |
| 20260503021518 | 43 | 191 | 0.9 | 3.5 | 0.00 | 0.00 | 0.00 | 68 | 1007.7 |
| 20260503020529 | 43 | 191 | 0.9 | 3.5 | 0.00 | 0.00 | 0.00 | 68 | 1007.7 |
| 20260503015532 | 43 | 328 | 0.0 | 2.6 | 0.00 | 0.00 | 0.00 | 68 | 1007.5 |
| 20260503014538 | 43 | 328 | 0.9 | 2.6 | 0.00 | 0.00 | 0.00 | 68 | 1007.8 |
| 20260503013459 | 43 | 328 | 0.9 | 1.7 | 0.00 | 0.00 | 0.00 | 68 | 1007.9 |
| 20260503012512 | 43 | 328 | 0.0 | 1.7 | 0.00 | 0.00 | 0.00 | 68 | 1007.9 |
| 20260503011506 | 44 | 328 | 0.0 | 1.7 | 0.00 | 0.00 | 0.00 | 68 | 1008.1 |
| 20260503010517 | 44 | 328 | 0.9 | 2.6 | 0.00 | 0.00 | 0.00 | 68 | 1008.2 |
| 20260503005501 | 44 | 298 | 0.0 | 2.6 | 0.00 | 0.00 | 0.00 | 67 | 1008.2 |
| 20260503003508 | 44 | 289 | 0.9 | 3.5 | 0.00 | 0.00 | 0.00 | 68 | 1008.5 |
| 20260503002458 | 44 | 289 | 0.9 | 3.5 | 0.00 | 0.00 | 0.00 | 69 | 1008.5 |
| 20260503001429 | 44 | 51 | 0.9 | 3.5 | 0.00 | 0.00 | 0.00 | 70 | 1008.5 |
| 20260503000430 | 44 | 184 | 0.9 | 3.5 | 0.00 | 0.00 | 0.00 | 70 | 1008.6 |
| 20260502234420 | 45 | 137 | 0.9 | 2.6 | 0.00 | 0.00 | 0.00 | 70 | 1008.7 |
| 20260502233416 | 45 | 290 | 0.9 | 1.7 | 0.00 | 0.00 | 0.00 | 68 | 1008.7 |
| 20260502232415 | 45 | 246 | 0.9 | 2.6 | 0.00 | 0.00 | 0.00 | 69 | 1008.8 |
| 20260502231415 | 45 | 334 | 0.9 | 2.6 | 0.00 | 0.00 | 0.00 | 69 | 1008.7 |
| 20260502230411 | 45 | 334 | 0.0 | 1.7 | 0.00 | 0.00 | 0.00 | 69 | 1008.7 |
| 20260502225424 | 45 | 334 | 0.0 | 1.7 | 0.00 | 0.00 | 0.00 | 69 | 1008.7 |
| 20260502223425 | 46 | 7 | 0.9 | 3.5 | 0.00 | 0.00 | 0.00 | 69 | 1008.8 |
| 20260502222417 | 46 | 89 | 0.9 | 2.6 | 0.00 | 0.00 | 0.00 | 68 | 1008.7 |
| 20260502221421 | 47 | 344 | 0.9 | 3.5 | 0.00 | 0.00 | 0.00 | 67 | 1008.8 |
| 20260502220410 | 47 | 21 | 0.9 | 1.7 | 0.00 | 0.00 | 0.00 | 68 | 1008.7 |
| 20260502215405 | 47 | 21 | 0.9 | 1.7 | 0.00 | 0.00 | 0.00 | 67 | 1008.8 |
| 20260502214404 | 47 | 87 | 0.0 | 1.7 | 0.00 | 0.00 | 0.00 | 67 | 1008.9 |
| 20260502213429 | 47 | 87 | 0.9 | 2.6 | 0.00 | 0.00 | 0.00 | 68 | 1008.9 |
| 20260502212426 | 48 | 110 | 0.9 | 2.6 | 0.00 | 0.00 | 0.00 | 68 | 1008.8 |
| 20260502211437 | 48 | 338 | 0.9 | 1.7 | 0.00 | 0.00 | 0.00 | 67 | 1008.8 |
| 20260502210427 | 48 | 338 | 0.0 | 2.6 | 0.00 | 0.00 | 0.00 | 66 | 1008.8 |
| 20260502205408 | 48 | 288 | 0.9 | 2.6 | 0.00 | 0.00 | 0.00 | 67 | 1008.7 |
| 20260502204416 | 48 | 275 | 0.0 | 4.3 | 0.00 | 0.00 | 0.00 | 67 | 1008.8 |
| 20260502203406 | 49 | 220 | 1.7 | 4.3 | 0.00 | 0.00 | 0.00 | 67 | 1008.8 |
| 20260502202418 | 49 | 336 | 0.9 | 2.6 | 0.00 | 0.00 | 0.00 | 66 | 1008.8 |
| 20260502201404 | 49 | 12 | 0.9 | 2.6 | 0.00 | 0.00 | 0.00 | 66 | 1008.8 |
| 20260502200400 | 49 | 137 | 0.9 | 2.6 | 0.00 | 0.00 | 0.00 | 65 | 1008.8 |
| 20260502195355 | 50 | 286 | 0.9 | 1.7 | 0.00 | 0.00 | 0.00 | 65 | 1008.8 |
| 20260502194405 | 50 | 286 | 0.9 | 1.7 | 0.00 | 0.00 | 0.00 | 64 | 1008.7 |
| 20260502193345 | 51 | 286 | 0.9 | 2.6 | 0.00 | 0.00 | 0.00 | 63 | 1008.7 |
| 20260502192343 | 51 | 286 | 0.9 | 2.6 | 0.00 | 0.00 | 0.00 | 63 | 1008.7 |
| 20260502191342 | 52 | 286 | 0.0 | 1.7 | 0.00 | 0.00 | 0.00 | 61 | 1008.6 |
| 20260502190333 | 52 | 286 | 0.9 | 2.6 | 0.00 | 0.00 | 0.00 | 59 | 1008.7 |
| 20260502185339 | 52 | 286 | 0.9 | 3.5 | 0.00 | 0.00 | 0.00 | 59 | 1008.5 |
| 20260502184346 | 53 | 129 | 0.9 | 3.5 | 0.00 | 0.00 | 0.00 | 59 | 1008.3 |
| 20260502183301 | 54 | 80 | 0.9 | 3.5 | 0.00 | 0.00 | 0.00 | 57 | 1008.3 |
| 20260502182254 | 55 | 109 | 0.9 | 3.5 | 0.00 | 0.00 | 0.00 | 56 | 1008.2 |
| 20260502181251 | 55 | 14 | 0.9 | 2.6 | 0.00 | 0.00 | 0.00 | 54 | 1008.0 |
| 20260502180249 | 57 | 297 | 0.9 | 2.6 | 0.00 | 0.00 | 0.00 | 52 | 1008.0 |
| 20260502170211 | 59 | 284 | 2.6 | 9.6 | 0.00 | 0.00 | 0.00 | 45 | 1007.8 |
| 20260502164217 | 62 | 247 | 5.2 | 10.4 | 0.00 | 0.00 | 0.00 | 42 | 1007.8 |
| 20260502163230 | 63 | 255 | 4.3 | 12.2 | 0.00 | 0.00 | 0.00 | 41 | 1007.9 |
| 20260502162157 | 63 | 240 | 5.2 | 12.2 | 0.00 | 0.00 | 0.00 | 40 | 1008.0 |
| 20260502161156 | 64 | 236 | 5.2 | 12.2 | 0.00 | 0.00 | 0.00 | 39 | 1008.1 |
| 20260502160209 | 64 | 272 | 5.2 | 10.4 | 0.00 | 0.00 | 0.00 | 41 | 1008.1 |
| 20260502152156 | 65 | 238 | 6.1 | 11.3 | 0.00 | 0.00 | 0.00 | 39 | 1008.1 |
| 20260502151157 | 65 | 249 | 4.3 | 13.0 | 0.00 | 0.00 | 0.00 | 40 | 1008.2 |
| 20260502150155 | 65 | 244 | 7.0 | 13.0 | 0.00 | 0.00 | 0.00 | 43 | 1008.2 |
| 20260502130130 | 65 | 259 | 6.1 | 11.3 | 0.00 | 0.00 | 0.00 | 40 | 1009.1 |
| 20260502123038 | 65 | 281 | 6.1 | 10.4 | 0.00 | 0.00 | 0.00 | 45 | 1009.3 |
| 20260502122057 | 65 | 262 | 6.1 | 12.2 | 0.00 | 0.00 | 0.00 | 44 | 1009.3 |
| 20260502121109 | 65 | 161 | 6.1 | 12.2 | 0.00 | 0.00 | 0.00 | 48 | 1009.4 |
| 20260502115037 | 66 | 168 | 4.3 | 8.7 | 0.00 | 0.00 | 0.00 | 48 | 1009.4 |
| 20260502114040 | 67 | 301 | 2.6 | 7.0 | 0.00 | 0.00 | 0.00 | 42 | 1009.4 |
| 20260502112051 | 68 | 30 | 1.7 | 6.1 | 0.00 | 0.00 | 0.00 | 48 | 1009.6 |
| 20260502111120 | 67 | 128 | 1.7 | 5.2 | 0.00 | 0.00 | 0.00 | 47 | 1009.8 |
| 20260502110018 | 67 | 93 | 1.7 | 6.1 | 0.00 | 0.00 | 0.00 | 51 | 1009.8 |
| 20260502105025 | 66 | 74 | 1.7 | 5.2 | 0.00 | 0.00 | 0.00 | 52 | 1009.9 |
| 20260502104001 | 66 | 358 | 1.7 | 5.2 | 0.00 | 0.00 | 0.00 | 41 | 1009.9 |
| 20260502102957 | 66 | 153 | 1.7 | 7.0 | 0.00 | 0.00 | 0.00 | 51 | 1009.9 |
| 20260502101956 | 66 | 344 | 2.6 | 7.0 | 0.00 | 0.00 | 0.00 | 53 | 1010.3 |
| 20260502090946 | 63 | 121 | 1.7 | 5.2 | 0.00 | 0.00 | 0.00 | 57 | 1010.6 |
| 20260502070911 | 56 | 79 | 0.0 | 0.9 | 0.00 | 0.00 | 0.00 | 59 | 1011.4 |
| 20260502065910 | 55 | 79 | 0.0 | 0.9 | 0.00 | 0.00 | 0.00 | 59 | 1011.4 |
| 20260502064904 | 53 | 79 | 0.0 | 0.9 | 0.00 | 0.00 | 0.00 | 63 | 1011.6 |
| 20260502063905 | 51 | 79 | 0.0 | 0.9 | 0.00 | 0.00 | 0.00 | 68 | 1011.6 |
| 20260502061859 | 48 | 79 | 0.0 | 0.9 | 0.00 | 0.00 | 0.00 | 74 | 1011.6 |
| 20260502060859 | 46 | 79 | 0.0 | 0.0 | 0.00 | 0.00 | 0.00 | 71 | 1011.7 |
| 20260502055855 | 46 | 79 | 0.0 | 0.0 | 0.00 | 0.00 | 0.00 | 76 | 1011.7 |
| 20260502054853 | 45 | 79 | 0.0 | 0.0 | 0.00 | 0.00 | 0.00 | 76 | 1011.8 |
| 20260502053850 | 45 | 79 | 0.0 | 0.0 | 0.00 | 0.00 | 0.00 | 75 | 1011.9 |
| 20260502051858 | 44 | 79 | 0.0 | 0.9 | 0.00 | 0.00 | 0.00 | 72 | 1011.7 |
| 20260502050756 | 43 | 79 | 0.0 | 1.7 | 0.00 | 0.00 | 0.00 | 74 | 1011.9 |
| 20260502044747 | 42 | 79 | 0.9 | 1.7 | 0.00 | 0.00 | 0.00 | 75 | 1011.8 |
| 20260502043747 | 42 | 79 | 0.9 | 1.7 | 0.00 | 0.00 | 0.00 | 74 | 1011.8 |
| 20260502042806 | 42 | 79 | 0.0 | 1.7 | 0.00 | 0.00 | 0.00 | 74 | 1011.9 |
| 20260502035755 | 41 | 79 | 0.0 | 1.7 | 0.00 | 0.00 | 0.00 | 74 | 1011.9 |
| 20260502034741 | 41 | 79 | 0.0 | 1.7 | 0.00 | 0.00 | 0.00 | 74 | 1011.9 |
| 20260502033737 | 41 | 79 | 0.9 | 1.7 | 0.00 | 0.00 | 0.00 | 74 | 1011.8 |
| 20260502031736 | 41 | 79 | 0.0 | 1.7 | 0.00 | 0.00 | 0.00 | 74 | 1011.9 |
| 20260502030731 | 41 | 79 | 0.9 | 1.7 | 0.00 | 0.00 | 0.00 | 74 | 1011.9 |
| 20260502025723 | 41 | 79 | 0.0 | 1.7 | 0.00 | 0.00 | 0.00 | 74 | 1011.9 |
| 20260502024719 | 42 | 79 | 0.0 | 1.7 | 0.00 | 0.00 | 0.00 | 73 | 1011.9 |
| 20260502023725 | 42 | 79 | 0.0 | 1.7 | 0.00 | 0.00 | 0.00 | 72 | 1011.9 |
| 20260502022727 | 42 | 79 | 0.9 | 1.7 | 0.00 | 0.00 | 0.00 | 71 | 1012.0 |
| 20260502021724 | 42 | 32 | 0.0 | 1.7 | 0.00 | 0.00 | 0.00 | 72 | 1011.9 |